,,Stat6,,Stat2,,Stat8,,Stat9,,Stat10,,Wind1,,Wind1,
time,status,PA1M_AVG,status,PR1M_SUM,status,RH1M_AVG,status,SR1M_AVG,status,TA1M_AVG,status,W1dAve1m,status,W1sAve1m,
2005-12-07, 00:00:00,VALID,917.716,VALID,0,VALID,100,VALID,0.0169808,VALID,18.1241,VALID,3,VALID,0.00558036,
2005-12-07, 00:01:00,VALID,917.69,VALID,0,VALID,100,VALID,0.0169808,VALID,18.1047,VALID,3,VALID,0,
2005-12-07, 00:02:00,VALID,917.668,VALID,0,VALID,100,VALID,0.0339617,VALID,18.1277,VALID,3,VALID,0.048473,
2005-12-07, 00:03:00,VALID,917.67,VALID,0,VALID,100,VALID,0,VALID,18.1702,VALID,3,VALID,0.277257,
2005-12-07, 00:04:00,VALID,917.658,VALID,0,VALID,100,VALID,0,VALID,18.1954,VALID,32,VALID,0.579397,
2005-12-07, 00:05:00,VALID,917.647,VALID,0,VALID,100,VALID,0.0169808,VALID,18.1926,VALID,35,VALID,0.501143,
2005-12-07, 00:06:00,VALID,917.609,VALID,0,VALID,100,VALID,0,VALID,18.1824,VALID,35,VALID,0.592076,
2005-12-07, 00:07:00,VALID,917.577,VALID,0,VALID,100,VALID,0.0169808,VALID,18.2438,VALID,35,VALID,0.492188,
2005-12-07, 00:08:00,VALID,917.546,VALID,0,VALID,100,VALID,0,VALID,18.2632,VALID,35,VALID,0.427024,
2005-12-07, 00:09:00,VALID,917.533,VALID,0,VALID,100,VALID,0.0169808,VALID,18.266,VALID,35,VALID,0.569741,
2005-12-07, 00:10:00,VALID,917.515,VALID,0,VALID,100,VALID,0,VALID,18.2602,VALID,35,VALID,0.571733,
2005-12-07, 00:11:00,VALID,917.508,VALID,0,VALID,100,VALID,0,VALID,18.2537,VALID,35,VALID,0.287287,
2005-12-07, 00:12:00,VALID,917.496,VALID,0,VALID,100,VALID,0,VALID,18.2408,VALID,35,VALID,0.480655,
2005-12-07, 00:13:00,VALID,917.467,VALID,0,VALID,100,VALID,0,VALID,18.215,VALID,35,VALID,0.497174,
2005-12-07, 00:14:00,VALID,917.445,VALID,0,VALID,100,VALID,0,VALID,18.218,VALID,35,VALID,0.515625,
2005-12-07, 00:15:00,VALID,917.413,VALID,0,VALID,100,VALID,0,VALID,18.2117,VALID,35,VALID,0.582122,
2005-12-07, 00:16:00,VALID,917.39,VALID,0,VALID,100,VALID,0,VALID,18.2244,VALID,23,VALID,0.894832,
2005-12-07, 00:17:00,VALID,917.372,VALID,0,VALID,100,VALID,0.0169808,VALID,18.2697,VALID,19,VALID,0.560547,
2005-12-07, 00:18:00,VALID,917.351,VALID,0,VALID,100,VALID,0.0509425,VALID,18.302,VALID,11,VALID,0.460547,
2005-12-07, 00:19:00,VALID,917.318,VALID,0,VALID,100,VALID,0.0339617,VALID,18.3313,VALID,4,VALID,0.477679,
2005-12-07, 00:20:00,VALID,917.299,VALID,0,VALID,100,VALID,0.0169808,VALID,18.3703,VALID,355,VALID,0.659307,
2005-12-07, 00:21:00,VALID,917.27,VALID,0,VALID,100,VALID,0.0339617,VALID,18.4024,VALID,338,VALID,0.546148,
2005-12-07, 00:22:00,VALID,917.262,VALID,0,VALID,99.9916,VALID,0,VALID,18.4024,VALID,338,VALID,0.13125,
2005-12-07, 00:23:00,VALID,917.236,VALID,0,VALID,99.7218,VALID,0,VALID,18.3864,VALID,338,VALID,0.130944,
2005-12-07, 00:24:00,VALID,917.228,VALID,0,VALID,99.8667,VALID,0.0339617,VALID,18.4056,VALID,336,VALID,0.672602,
2005-12-07, 00:25:00,VALID,917.219,VALID,0,VALID,99.5565,VALID,0,VALID,18.3959,VALID,322,VALID,0.513281,
2005-12-07, 00:26:00,VALID,917.194,VALID,0,VALID,99.0745,VALID,0,VALID,18.3763,VALID,351,VALID,0.7004,
2005-12-07, 00:27:00,VALID,917.195,VALID,0,VALID,98.5722,VALID,0,VALID,18.3216,VALID,351,VALID,0.690662,
2005-12-07, 00:28:00,VALID,917.185,VALID,0,VALID,99.3835,VALID,0,VALID,18.38,VALID,356,VALID,0.682927,
2005-12-07, 00:29:00,VALID,917.189,VALID,0,VALID,99.2386,VALID,0.0169808,VALID,18.4086,VALID,354,VALID,0.72202,
2005-12-07, 00:30:00,VALID,917.193,VALID,0,VALID,99.3632,VALID,0.0339617,VALID,18.4213,VALID,356,VALID,0.578697,
2005-12-07, 00:31:00,VALID,917.181,VALID,0,VALID,99.1597,VALID,0.0339617,VALID,18.4381,VALID,12,VALID,0.98544,
2005-12-07, 00:32:00,VALID,917.159,VALID,0,VALID,99.2068,VALID,0.0509425,VALID,18.4543,VALID,359,VALID,0.962536,
2005-12-07, 00:33:00,VALID,917.13,VALID,0,VALID,99.1267,VALID,0,VALID,18.4637,VALID,10,VALID,1.01544,
2005-12-07, 00:34:00,VALID,917.096,VALID,0,VALID,99.0593,VALID,0.0339617,VALID,18.457,VALID,26,VALID,1.02639,
2005-12-07, 00:35:00,VALID,917.068,VALID,0,VALID,99.2437,VALID,0.0169808,VALID,18.4924,VALID,24,VALID,1.27958,
2005-12-07, 00:36:00,VALID,917.026,VALID,0,VALID,98.838,VALID,0.0339617,VALID,18.5087,VALID,24,VALID,0.913699,
2005-12-07, 00:37:00,VALID,917.003,VALID,0,VALID,98.6256,VALID,0.0339617,VALID,18.4866,VALID,21,VALID,0.765024,
2005-12-07, 00:38:00,VALID,916.983,VALID,0,VALID,98.6791,VALID,0.0169808,VALID,18.457,VALID,29,VALID,0.522928,
2005-12-07, 00:39:00,VALID,916.984,VALID,0,VALID,98.7528,VALID,0.0339617,VALID,18.4501,VALID,21,VALID,0.252232,
2005-12-07, 00:40:00,VALID,916.988,VALID,0,VALID,98.4235,VALID,0.0509425,VALID,18.421,VALID,337,VALID,0.338542,
2005-12-07, 00:41:00,VALID,916.976,VALID,0,VALID,98.6002,VALID,0.0509425,VALID,18.4414,VALID,349,VALID,0.503239,
2005-12-07, 00:42:00,VALID,916.976,VALID,0,VALID,98.4883,VALID,0.0339617,VALID,18.4409,VALID,17,VALID,1.10547,
2005-12-07, 00:43:00,VALID,916.968,VALID,0,VALID,98.3167,VALID,0,VALID,18.4208,VALID,8,VALID,1.05632,
2005-12-07, 00:44:00,VALID,916.948,VALID,0,VALID,98.0674,VALID,0.0169808,VALID,18.4409,VALID,15,VALID,0.666667,
2005-12-07, 00:45:00,VALID,916.934,VALID,0,VALID,97.9987,VALID,0.0169808,VALID,18.4446,VALID,329,VALID,0.521839,
2005-12-07, 00:46:00,VALID,916.92,VALID,0,VALID,98.2137,VALID,0,VALID,18.4603,VALID,296,VALID,0.0775534,
2005-12-07, 00:47:00,VALID,916.893,VALID,0,VALID,98.3306,VALID,0,VALID,18.4767,VALID,296,VALID,0.107088,
2005-12-07, 00:48:00,VALID,916.894,VALID,0,VALID,98.4031,VALID,-0.0339617,VALID,18.4868,VALID,296,VALID,0.117018,
2005-12-07, 00:49:00,VALID,916.868,VALID,0,VALID,98.3434,VALID,-0.0679233,VALID,18.4942,VALID,277,VALID,0.434642,
2005-12-07, 00:50:00,VALID,916.83,VALID,0,VALID,98.557,VALID,-0.0679233,VALID,18.5136,VALID,265,VALID,0.109738,
2005-12-07, 00:51:00,VALID,916.776,VALID,0,VALID,98.791,VALID,-0.0339617,VALID,18.5203,VALID,265,VALID,0.0290179,
2005-12-07, 00:52:00,VALID,916.727,VALID,0,VALID,98.955,VALID,-0.118866,VALID,18.5166,VALID,265,VALID,0.199405,
2005-12-07, 00:53:00,VALID,916.684,VALID,0,VALID,99.2119,VALID,-0.0679233,VALID,18.5265,VALID,265,VALID,0.247159,
2005-12-07, 00:54:00,VALID,916.65,VALID,0,VALID,99.1406,VALID,-0.0679233,VALID,18.5071,VALID,265,VALID,0.273615,
2005-12-07, 00:55:00,VALID,916.63,VALID,0,VALID,98.9792,VALID,-0.0679233,VALID,18.4808,VALID,265,VALID,0.106517,
2005-12-07, 00:56:00,VALID,916.606,VALID,0,VALID,98.8393,VALID,-0.0679233,VALID,18.4458,VALID,204,VALID,0.504167,
2005-12-07, 00:57:00,VALID,916.601,VALID,0,VALID,98.5506,VALID,-0.0849042,VALID,18.3943,VALID,192,VALID,0.459794,
2005-12-07, 00:58:00,VALID,916.58,VALID,0,VALID,98.5239,VALID,-0.101885,VALID,18.3267,VALID,178,VALID,0.466797,
2005-12-07, 00:59:00,VALID,916.569,VALID,0,VALID,98.7503,VALID,-0.0679233,VALID,18.281,VALID,135,VALID,0.475074,
2005-12-07, 01:00:00,VALID,916.545,VALID,0,VALID,98.6918,VALID,-0.101885,VALID,18.2293,VALID,134,VALID,0.339367,
2005-12-07, 01:01:00,VALID,916.53,VALID,0,VALID,98.9143,VALID,-0.0849042,VALID,18.194,VALID,134,VALID,0.689135,
2005-12-07, 01:02:00,VALID,916.515,VALID,0,VALID,98.9906,VALID,-0.101885,VALID,18.1679,VALID,134,VALID,0.524368,
2005-12-07, 01:03:00,VALID,916.492,VALID,0,VALID,99.1775,VALID,-0.0679233,VALID,18.1254,VALID,121,VALID,0.711868,
2005-12-07, 01:04:00,VALID,916.465,VALID,0,VALID,99.4624,VALID,0,VALID,18.1086,VALID,116,VALID,0.701322,
2005-12-07, 01:05:00,VALID,916.444,VALID,0,VALID,99.648,VALID,0,VALID,18.0827,VALID,121,VALID,0.798692,
2005-12-07, 01:06:00,VALID,916.438,VALID,0,VALID,99.9738,VALID,0,VALID,18.0894,VALID,130,VALID,0.98056,
2005-12-07, 01:07:00,VALID,916.451,VALID,0,VALID,100,VALID,0.0169808,VALID,18.0857,VALID,144,VALID,0.889205,
2005-12-07, 01:08:00,VALID,916.466,VALID,0,VALID,100,VALID,0,VALID,18.0795,VALID,146,VALID,0.939732,
2005-12-07, 01:09:00,VALID,916.495,VALID,0,VALID,100,VALID,-0.0169808,VALID,18.0793,VALID,147,VALID,0.745245,
2005-12-07, 01:10:00,VALID,916.51,VALID,0,VALID,100,VALID,0,VALID,18.044,VALID,139,VALID,0.711115,
2005-12-07, 01:11:00,VALID,916.53,VALID,0,VALID,100,VALID,0,VALID,18.0087,VALID,135,VALID,0.557813,
2005-12-07, 01:12:00,VALID,916.542,VALID,0,VALID,100,VALID,0,VALID,17.9927,VALID,136,VALID,1.01734,
2005-12-07, 01:13:00,VALID,916.554,VALID,0,VALID,100,VALID,0,VALID,17.9701,VALID,142,VALID,0.824491,
2005-12-07, 01:14:00,VALID,916.564,VALID,0,VALID,100,VALID,0,VALID,17.9505,VALID,139,VALID,0.543968,
2005-12-07, 01:15:00,VALID,916.566,VALID,0,VALID,100,VALID,-0.0169808,VALID,17.9122,VALID,143,VALID,0.518293,
2005-12-07, 01:16:00,VALID,916.578,VALID,0,VALID,100,VALID,0,VALID,17.8857,VALID,143,VALID,0.490885,
2005-12-07, 01:17:00,VALID,916.58,VALID,0,VALID,100,VALID,0,VALID,17.8792,VALID,143,VALID,0.401101,
2005-12-07, 01:18:00,VALID,916.575,VALID,0,VALID,100,VALID,0.0169808,VALID,17.8852,VALID,142,VALID,0.556141,
2005-12-07, 01:19:00,VALID,916.579,VALID,0,VALID,100,VALID,0.0169808,VALID,17.9281,VALID,136,VALID,0.436955,
2005-12-07, 01:20:00,VALID,916.566,VALID,0,VALID,100,VALID,0,VALID,17.9208,VALID,125,VALID,0.532965,
2005-12-07, 01:21:00,VALID,916.568,VALID,0,VALID,100,VALID,0,VALID,17.9085,VALID,124,VALID,0.393864,
2005-12-07, 01:22:00,VALID,916.544,VALID,0,VALID,100,VALID,0,VALID,17.8857,VALID,120,VALID,0.634673,
2005-12-07, 01:23:00,VALID,916.527,VALID,0,VALID,100,VALID,0.0169808,VALID,17.9274,VALID,120,VALID,0.422247,
2005-12-07, 01:24:00,VALID,916.522,VALID,0,VALID,100,VALID,0.0339617,VALID,17.9406,VALID,120,VALID,0.0439236,
2005-12-07, 01:25:00,VALID,916.511,VALID,0,VALID,100,VALID,0.0169808,VALID,17.9344,VALID,120,VALID,0.312305,
2005-12-07, 01:26:00,VALID,916.518,VALID,0,VALID,100,VALID,0.0169808,VALID,17.9344,VALID,120,VALID,0.426847,
2005-12-07, 01:27:00,VALID,916.536,VALID,0,VALID,100,VALID,0.0169808,VALID,17.944,VALID,120,VALID,0.46317,
2005-12-07, 01:28:00,VALID,916.527,VALID,0,VALID,100,VALID,0,VALID,17.9378,VALID,120,VALID,0.633333,
2005-12-07, 01:29:00,VALID,916.529,VALID,0,VALID,100,VALID,-0.0169808,VALID,17.9311,VALID,120,VALID,0.476935,
2005-12-07, 01:30:00,VALID,916.513,VALID,0,VALID,100,VALID,-0.0169808,VALID,17.9544,VALID,139,VALID,0.713034,
2005-12-07, 01:31:00,VALID,916.493,VALID,0,VALID,100,VALID,0,VALID,17.9768,VALID,143,VALID,0.716406,
2005-12-07, 01:32:00,VALID,916.468,VALID,0,VALID,100,VALID,0,VALID,17.996,VALID,152,VALID,0.61814,
2005-12-07, 01:33:00,VALID,916.449,VALID,0,VALID,100,VALID,0,VALID,18.0184,VALID,160,VALID,0.667597,
2005-12-07, 01:34:00,VALID,916.435,VALID,0,VALID,100,VALID,-0.0169808,VALID,18.0186,VALID,148,VALID,0.298549,
2005-12-07, 01:35:00,VALID,916.44,VALID,0,VALID,100,VALID,0.0169808,VALID,18.002,VALID,143,VALID,0.326042,
2005-12-07, 01:36:00,VALID,916.433,VALID,0,VALID,100,VALID,0,VALID,17.986,VALID,132,VALID,0.238459,
2005-12-07, 01:37:00,VALID,916.444,VALID,0,VALID,100,VALID,0,VALID,17.9736,VALID,132,VALID,0.341146,
2005-12-07, 01:38:00,VALID,916.435,VALID,0,VALID,100,VALID,-0.0339617,VALID,17.9733,VALID,132,VALID,0.559837,
2005-12-07, 01:39:00,VALID,916.418,VALID,0,VALID,100,VALID,0,VALID,17.9798,VALID,132,VALID,0.535511,
2005-12-07, 01:40:00,VALID,916.394,VALID,0,VALID,100,VALID,0,VALID,18.0052,VALID,132,VALID,0.326637,
2005-12-07, 01:41:00,VALID,916.367,VALID,0,VALID,100,VALID,0,VALID,18.0179,VALID,132,VALID,0.0706936,
2005-12-07, 01:42:00,VALID,916.308,VALID,0,VALID,100,VALID,0.0169808,VALID,18.0184,VALID,132,VALID,0.0993304,
2005-12-07, 01:43:00,VALID,916.262,VALID,0,VALID,100,VALID,0,VALID,17.9897,VALID,132,VALID,0.00301847,
2005-12-07, 01:44:00,VALID,916.234,VALID,0,VALID,100,VALID,0.0339617,VALID,17.9634,VALID,132,VALID,0.0126488,
2005-12-07, 01:45:00,VALID,916.193,VALID,0,VALID,100,VALID,-0.0169808,VALID,17.9533,VALID,132,VALID,0,
2005-12-07, 01:46:00,VALID,916.171,VALID,0,VALID,100,VALID,0,VALID,17.9404,VALID,132,VALID,0,
2005-12-07, 01:47:00,VALID,916.165,VALID,0,VALID,100,VALID,0,VALID,17.9376,VALID,132,VALID,0,
2005-12-07, 01:48:00,VALID,916.156,VALID,0,VALID,100,VALID,0.0169808,VALID,17.944,VALID,132,VALID,0,
2005-12-07, 01:49:00,VALID,916.161,VALID,0,VALID,100,VALID,0,VALID,17.9279,VALID,131,VALID,0.100977,
2005-12-07, 01:50:00,VALID,916.125,VALID,0,VALID,100,VALID,0,VALID,17.918,VALID,125,VALID,0.593932,
2005-12-07, 01:51:00,VALID,916.118,VALID,0,VALID,100,VALID,0.0169808,VALID,17.9217,VALID,125,VALID,0.278525,
2005-12-07, 01:52:00,VALID,916.106,VALID,0,VALID,100,VALID,0,VALID,17.9247,VALID,125,VALID,0.208212,
2005-12-07, 01:53:00,VALID,916.083,VALID,0,VALID,100,VALID,-0.0169808,VALID,17.9413,VALID,125,VALID,0.00817587,
2005-12-07, 01:54:00,VALID,916.069,VALID,0,VALID,100,VALID,-0.0169808,VALID,17.9117,VALID,125,VALID,0,
2005-12-07, 01:55:00,VALID,916.055,VALID,0,VALID,100,VALID,0,VALID,17.9283,VALID,125,VALID,0,
2005-12-07, 01:56:00,VALID,916.046,VALID,0,VALID,100,VALID,0,VALID,17.9378,VALID,125,VALID,0.18843,
2005-12-07, 01:57:00,VALID,916.018,VALID,0,VALID,100,VALID,0,VALID,17.9637,VALID,125,VALID,0.369792,
2005-12-07, 01:58:00,VALID,916.005,VALID,0,VALID,100,VALID,0.0169808,VALID,17.9604,VALID,125,VALID,0.362537,
2005-12-07, 01:59:00,VALID,915.979,VALID,0,VALID,100,VALID,0,VALID,17.9314,VALID,125,VALID,0.457698,
2005-12-07, 02:00:00,VALID,915.981,VALID,0,VALID,100,VALID,0,VALID,17.9316,VALID,124,VALID,0.53869,
2005-12-07, 02:01:00,VALID,915.978,VALID,0,VALID,100,VALID,0,VALID,17.954,VALID,122,VALID,0.537642,
2005-12-07, 02:02:00,VALID,916.003,VALID,0,VALID,100,VALID,0,VALID,17.977,VALID,122,VALID,0.561738,
2005-12-07, 02:03:00,VALID,916.032,VALID,0,VALID,100,VALID,0.0169808,VALID,17.9897,VALID,116,VALID,0.671503,
2005-12-07, 02:04:00,VALID,916.069,VALID,0,VALID,100,VALID,-0.0169808,VALID,18.0024,VALID,114,VALID,0.824886,
2005-12-07, 02:05:00,VALID,916.089,VALID,0,VALID,100,VALID,-0.0339617,VALID,18.0089,VALID,102,VALID,0.686166,
2005-12-07, 02:06:00,VALID,916.133,VALID,0,VALID,100,VALID,-0.0169808,VALID,18.0188,VALID,102,VALID,0.772852,
2005-12-07, 02:07:00,VALID,916.149,VALID,0,VALID,100,VALID,-0.0169808,VALID,18.0287,VALID,102,VALID,0.869792,
2005-12-07, 02:08:00,VALID,916.172,VALID,0,VALID,100,VALID,0,VALID,18.0283,VALID,96,VALID,1.04531,
2005-12-07, 02:09:00,VALID,916.191,VALID,0,VALID,99.8159,VALID,0,VALID,18.038,VALID,74,VALID,0.782269,
2005-12-07, 02:10:00,VALID,916.202,VALID,0,VALID,99.5984,VALID,0,VALID,18.032,VALID,74,VALID,0.633168,
2005-12-07, 02:11:00,VALID,916.213,VALID,0,VALID,99.0402,VALID,0,VALID,17.9736,VALID,74,VALID,0.447129,
2005-12-07, 02:12:00,VALID,916.244,VALID,0,VALID,98.6256,VALID,0,VALID,17.8882,VALID,69,VALID,0.67133,
2005-12-07, 02:13:00,VALID,916.247,VALID,0,VALID,98.5481,VALID,0.0169808,VALID,17.8118,VALID,63,VALID,0.736281,
2005-12-07, 02:14:00,VALID,916.257,VALID,0,VALID,98.9156,VALID,0,VALID,17.7795,VALID,62,VALID,0.85119,
2005-12-07, 02:15:00,VALID,916.275,VALID,0,VALID,99.2373,VALID,0,VALID,17.7599,VALID,62,VALID,0.959032,
2005-12-07, 02:16:00,VALID,916.293,VALID,0,VALID,99.6302,VALID,0.0169808,VALID,17.7502,VALID,59,VALID,1.10565,
2005-12-07, 02:17:00,VALID,916.306,VALID,0,VALID,100,VALID,0.0169808,VALID,17.792,VALID,60,VALID,1.19434,
2005-12-07, 02:18:00,VALID,916.323,VALID,0,VALID,100,VALID,0,VALID,17.8024,VALID,71,VALID,0.973474,
2005-12-07, 02:19:00,VALID,916.32,VALID,0,VALID,100,VALID,0,VALID,17.8176,VALID,73,VALID,0.927951,
2005-12-07, 02:20:00,VALID,916.322,VALID,0,VALID,100,VALID,0,VALID,17.8407,VALID,73,VALID,0.775391,
2005-12-07, 02:21:00,VALID,916.301,VALID,0,VALID,100,VALID,0.0339617,VALID,17.8529,VALID,73,VALID,0.689062,
2005-12-07, 02:22:00,VALID,916.295,VALID,0,VALID,100,VALID,0,VALID,17.8951,VALID,98,VALID,0.734722,
2005-12-07, 02:23:00,VALID,916.286,VALID,0,VALID,100,VALID,0,VALID,17.9346,VALID,105,VALID,0.516578,
2005-12-07, 02:24:00,VALID,916.267,VALID,0,VALID,100,VALID,0.0169808,VALID,17.9607,VALID,106,VALID,0.376906,
2005-12-07, 02:25:00,VALID,916.247,VALID,0,VALID,100,VALID,0,VALID,17.9602,VALID,106,VALID,0.438058,
2005-12-07, 02:26:00,VALID,916.224,VALID,0,VALID,100,VALID,0,VALID,17.9667,VALID,110,VALID,0.516555,
2005-12-07, 02:27:00,VALID,916.205,VALID,0,VALID,99.9629,VALID,0,VALID,17.9733,VALID,113,VALID,0.486555,
2005-12-07, 02:28:00,VALID,916.184,VALID,0,VALID,99.9916,VALID,0,VALID,17.9503,VALID,113,VALID,0.597266,
2005-12-07, 02:29:00,VALID,916.166,VALID,0,VALID,100,VALID,0.0169808,VALID,17.9604,VALID,122,VALID,0.756177,
2005-12-07, 02:30:00,VALID,916.144,VALID,0,VALID,100,VALID,-0.0169808,VALID,17.957,VALID,136,VALID,0.997196,
2005-12-07, 02:31:00,VALID,916.144,VALID,0,VALID,100,VALID,0,VALID,17.9699,VALID,136,VALID,0.721058,
2005-12-07, 02:32:00,VALID,916.144,VALID,0,VALID,100,VALID,0.0339617,VALID,17.9727,VALID,132,VALID,0.543899,
2005-12-07, 02:33:00,VALID,916.134,VALID,0,VALID,99.5717,VALID,0.0169808,VALID,17.9311,VALID,124,VALID,0.411014,
2005-12-07, 02:34:00,VALID,916.12,VALID,0,VALID,99.5031,VALID,0.0169808,VALID,17.8861,VALID,119,VALID,0.475291,
2005-12-07, 02:35:00,VALID,916.105,VALID,0,VALID,99.6862,VALID,0.0169808,VALID,17.8801,VALID,118,VALID,0.595567,
2005-12-07, 02:36:00,VALID,916.084,VALID,0,VALID,99.9003,VALID,0,VALID,17.896,VALID,112,VALID,0.818979,
2005-12-07, 02:37:00,VALID,916.06,VALID,0,VALID,100,VALID,-0.0339617,VALID,17.98,VALID,102,VALID,0.903343,
2005-12-07, 02:38:00,VALID,916.031,VALID,0,VALID,99.8815,VALID,0.0169808,VALID,18.0894,VALID,102,VALID,0.829215,
2005-12-07, 02:39:00,VALID,916.004,VALID,0,VALID,99.4306,VALID,0,VALID,18.1799,VALID,102,VALID,0.835938,
2005-12-07, 02:40:00,VALID,915.95,VALID,0,VALID,98.9677,VALID,0,VALID,18.2385,VALID,102,VALID,0.721799,
2005-12-07, 02:41:00,VALID,915.909,VALID,0,VALID,98.4451,VALID,0.0169808,VALID,18.2673,VALID,102,VALID,0.416548,
2005-12-07, 02:42:00,VALID,915.862,VALID,0,VALID,98.2315,VALID,0.0169808,VALID,18.2348,VALID,102,VALID,0.411014,
2005-12-07, 02:43:00,VALID,915.833,VALID,0,VALID,98.3344,VALID,0,VALID,18.2124,VALID,102,VALID,0.535429,
2005-12-07, 02:44:00,VALID,915.805,VALID,0,VALID,98.3179,VALID,0,VALID,18.197,VALID,102,VALID,0.359566,
2005-12-07, 02:45:00,VALID,915.779,VALID,0,VALID,98.0318,VALID,0.0169808,VALID,18.1446,VALID,102,VALID,0.187855,
2005-12-07, 02:46:00,VALID,915.779,VALID,0,VALID,98.2429,VALID,0,VALID,18.1254,VALID,102,VALID,0.102515,
2005-12-07, 02:47:00,VALID,915.76,VALID,0,VALID,98.4133,VALID,0,VALID,18.106,VALID,102,VALID,0.108842,
2005-12-07, 02:48:00,VALID,915.734,VALID,0,VALID,98.3815,VALID,0,VALID,18.0802,VALID,123,VALID,0.28776,
2005-12-07, 02:49:00,VALID,915.711,VALID,0,VALID,98.6091,VALID,0,VALID,18.0673,VALID,165,VALID,0.375868,
2005-12-07, 02:50:00,VALID,915.663,VALID,0,VALID,98.9448,VALID,-0.0169808,VALID,18.1063,VALID,165,VALID,0.390625,
2005-12-07, 02:51:00,VALID,915.61,VALID,0,VALID,99.1076,VALID,-0.0169808,VALID,18.1252,VALID,165,VALID,0.238636,
2005-12-07, 02:52:00,VALID,915.56,VALID,0,VALID,99.1686,VALID,0.0169808,VALID,18.1381,VALID,165,VALID,0.539634,
2005-12-07, 02:53:00,VALID,915.493,VALID,0,VALID,99.0593,VALID,-0.0339617,VALID,18.142,VALID,165,VALID,0.696801,
2005-12-07, 02:54:00,VALID,915.447,VALID,0,VALID,98.8126,VALID,-0.0169808,VALID,18.0961,VALID,158,VALID,0.521439,
2005-12-07, 02:55:00,VALID,915.393,VALID,0,VALID,98.997,VALID,0,VALID,18.0806,VALID,155,VALID,0.541109,
2005-12-07, 02:56:00,VALID,915.361,VALID,0,VALID,99.1839,VALID,0,VALID,18.0543,VALID,156,VALID,0.190044,
2005-12-07, 02:57:00,VALID,915.334,VALID,0,VALID,99.2106,VALID,0,VALID,18.0444,VALID,156,VALID,0.172676,
2005-12-07, 02:58:00,VALID,915.299,VALID,0,VALID,99.2513,VALID,0,VALID,18.0156,VALID,163,VALID,0.663681,
2005-12-07, 02:59:00,VALID,915.281,VALID,0,VALID,99.5628,VALID,-0.0169808,VALID,18.0158,VALID,165,VALID,0.915365,
2005-12-07, 03:00:00,VALID,915.28,VALID,0,VALID,99.8919,VALID,0,VALID,18.0123,VALID,165,VALID,0.87609,
2005-12-07, 03:01:00,VALID,915.261,VALID,0,VALID,100,VALID,-0.0339617,VALID,18.0153,VALID,165,VALID,0.562855,
2005-12-07, 03:02:00,VALID,915.251,VALID,0,VALID,100,VALID,-0.0169808,VALID,18.0123,VALID,165,VALID,0.139844,
2005-12-07, 03:03:00,VALID,915.233,VALID,0,VALID,99.9285,VALID,0,VALID,17.9867,VALID,165,VALID,0.0483994,
2005-12-07, 03:04:00,VALID,915.221,VALID,0,VALID,99.6824,VALID,0,VALID,17.9447,VALID,165,VALID,0.0277344,
2005-12-07, 03:05:00,VALID,915.215,VALID,0,VALID,99.7218,VALID,-0.0169808,VALID,17.9087,VALID,165,VALID,0.00133384,
2005-12-07, 03:06:00,VALID,915.204,VALID,0,VALID,99.8845,VALID,0,VALID,17.8958,VALID,165,VALID,0.342311,
2005-12-07, 03:07:00,VALID,915.202,VALID,0,VALID,99.9929,VALID,0,VALID,17.9025,VALID,165,VALID,0.345846,
2005-12-07, 03:08:00,VALID,915.195,VALID,0,VALID,100,VALID,0,VALID,17.9217,VALID,165,VALID,0.138317,
2005-12-07, 03:09:00,VALID,915.2,VALID,0,VALID,99.9926,VALID,0,VALID,17.9378,VALID,165,VALID,0,
2005-12-07, 03:10:00,VALID,915.216,VALID,0,VALID,99.8858,VALID,0,VALID,17.9475,VALID,165,VALID,0.0012429,
2005-12-07, 03:11:00,VALID,915.23,VALID,0,VALID,99.7917,VALID,0,VALID,17.9604,VALID,165,VALID,0,
2005-12-07, 03:12:00,VALID,915.249,VALID,0,VALID,99.7968,VALID,0.0169808,VALID,17.9567,VALID,165,VALID,0,
2005-12-07, 03:13:00,VALID,915.269,VALID,0,VALID,99.6811,VALID,0.0169808,VALID,17.9406,VALID,165,VALID,0,
2005-12-07, 03:14:00,VALID,915.277,VALID,0,VALID,99.5717,VALID,0.0169808,VALID,17.9053,VALID,165,VALID,0.0719477,
2005-12-07, 03:15:00,VALID,915.296,VALID,0,VALID,99.8566,VALID,0.0169808,VALID,17.9023,VALID,164,VALID,0.444767,
2005-12-07, 03:16:00,VALID,915.298,VALID,0,VALID,100,VALID,0,VALID,17.9018,VALID,127,VALID,0.550967,
2005-12-07, 03:17:00,VALID,915.308,VALID,0,VALID,100,VALID,0,VALID,17.9057,VALID,126,VALID,0.467147,
2005-12-07, 03:18:00,VALID,915.308,VALID,0,VALID,100,VALID,0,VALID,17.8995,VALID,126,VALID,0.344658,
2005-12-07, 03:19:00,VALID,915.314,VALID,0,VALID,100,VALID,0.0339617,VALID,17.8854,VALID,126,VALID,0.199396,
2005-12-07, 03:20:00,VALID,915.321,VALID,0,VALID,100,VALID,0.0169808,VALID,17.9025,VALID,126,VALID,0.30907,
2005-12-07, 03:21:00,VALID,915.324,VALID,0,VALID,100,VALID,0,VALID,17.906,VALID,126,VALID,0.344322,
2005-12-07, 03:22:00,VALID,915.33,VALID,0,VALID,100,VALID,0,VALID,17.9092,VALID,126,VALID,0.382086,
2005-12-07, 03:23:00,VALID,915.361,VALID,0,VALID,100,VALID,0.0339617,VALID,17.9318,VALID,126,VALID,0.309896,
2005-12-07, 03:24:00,VALID,915.384,VALID,0,VALID,99.9954,VALID,-0.0169808,VALID,17.9348,VALID,126,VALID,0.277539,
2005-12-07, 03:25:00,VALID,915.414,VALID,0,VALID,99.8171,VALID,0,VALID,17.9251,VALID,126,VALID,0.313834,
2005-12-07, 03:26:00,VALID,915.443,VALID,0,VALID,99.6709,VALID,0,VALID,17.912,VALID,126,VALID,0.465511,
2005-12-07, 03:27:00,VALID,915.469,VALID,0,VALID,99.8678,VALID,0,VALID,17.9025,VALID,131,VALID,0.755912,
2005-12-07, 03:28:00,VALID,915.482,VALID,0,VALID,100,VALID,0.0339617,VALID,17.9117,VALID,131,VALID,0.621354,
2005-12-07, 03:29:00,VALID,915.51,VALID,0,VALID,100,VALID,0,VALID,17.9152,VALID,131,VALID,0.646763,
2005-12-07, 03:30:00,VALID,915.525,VALID,0,VALID,100,VALID,0.0169808,VALID,17.912,VALID,131,VALID,0.246354,
2005-12-07, 03:31:00,VALID,915.528,VALID,0,VALID,100,VALID,0,VALID,17.893,VALID,131,VALID,0.353766,
2005-12-07, 03:32:00,VALID,915.535,VALID,0,VALID,100,VALID,0,VALID,17.8767,VALID,131,VALID,0.503906,
2005-12-07, 03:33:00,VALID,915.554,VALID,0,VALID,100,VALID,0,VALID,17.8474,VALID,131,VALID,0.478125,
2005-12-07, 03:34:00,VALID,915.551,VALID,0,VALID,100,VALID,0.0339617,VALID,17.8247,VALID,131,VALID,0.372093,
2005-12-07, 03:35:00,VALID,915.539,VALID,0,VALID,100,VALID,0,VALID,17.7927,VALID,128,VALID,0.515451,
2005-12-07, 03:36:00,VALID,915.528,VALID,0,VALID,100,VALID,0,VALID,17.783,VALID,118,VALID,0.76527,
2005-12-07, 03:37:00,VALID,915.519,VALID,0,VALID,100,VALID,0.0169808,VALID,17.7733,VALID,118,VALID,0.714134,
2005-12-07, 03:38:00,VALID,915.498,VALID,0,VALID,100,VALID,0.0169808,VALID,17.7765,VALID,118,VALID,0.630394,
2005-12-07, 03:39:00,VALID,915.488,VALID,0,VALID,100,VALID,0,VALID,17.7957,VALID,118,VALID,0.516369,
2005-12-07, 03:40:00,VALID,915.469,VALID,0,VALID,100,VALID,0.0169808,VALID,17.7987,VALID,118,VALID,0.309261,
2005-12-07, 03:41:00,VALID,915.452,VALID,0,VALID,100,VALID,0.0169808,VALID,17.8051,VALID,122,VALID,0.504192,
2005-12-07, 03:42:00,VALID,915.456,VALID,0,VALID,100,VALID,0.0339617,VALID,17.8148,VALID,127,VALID,0.570122,
2005-12-07, 03:43:00,VALID,915.458,VALID,0,VALID,100,VALID,-0.0169808,VALID,17.8347,VALID,123,VALID,0.499414,